Location: ??
(35.5052°N, 139.7262°E)
Time: 18:23:08
(UTC+00:00)

Cosmos 2034 Rocket - Pass Details

Date: 20 June 2021
Orbit: 957 x 1001 km, 82.9° (Epoch: 29 July)

Event Time Altitude Azimuth Distance (km) Brightness Sun altitude
Rises 14:18:08 0° 351° (N) 3,654 8.2 -30.8°
Reaches altitude 10° 14:20:39 10° 350° (N) 2,700 7.2 -30.8°
Enters shadow 14:26:22 70° 299° (WNW) 1,014 4.0 -30.9°
